DECAYED

CZ-6A DEB, 61335 (Decayed)

Orbit data source: Space-Track

CZ-6A DEB, 61335 was space debris in LEO originally from a launch on Tue, 06 Aug 2024 UTC launched from the Taiyaun Space Center, China (TSC). Debris objects in space refer to the collection of defunct objects orbiting the Earth. Examples of debris include non-operational satellites, rocket bodies, and fragments generated from explosions, collisions, or faulty payload assembly.

Not visible in the next 10 days
Identifier
61335, 2024-140UY
Orbit
Decayed
Country
Flag of CNCN / PRC
Related business
Manufacturer
SAST
Mission
Decayed spacecraft
Bus & Motor
Unknown
Mass
Unknown
Launch date (UTC)
2024-08-06 (1 year ago)
Launch vehicle
Unknown
Launch site
Taiyaun Space Center, China (TSC)
Object type
Payload
Rocket body
Debris
Shape & HBR
Unknown shape, 0.1 m
Radar Cross Section
Small (<0.1 m²)

Expand to show TLE details & history
Last TLE update: 2 months ago

TLE from 2 months ago
0 CZ-6A DEB
1 61335U 24140UY  25297.96147586  .15344334 -11492-5  50884-2 0  9997
2 61335  88.9316 294.4602 0018295 197.7696 162.2969 16.25452269 62973
Epoch: 2025-10-24T23:04Z
TLE epoch observation values (Epoch: 2025-10-24T23:04:31.514Z)
Latitude
-0.00002°
Longitude
-85.26997°
Altitude
219.609 km
Speed
7.768 km/s
True Right ascension
19h 37m 50s
True Declination
0° 00' 00"
Sunlit
Object was in daylight at epoch
Visualization orbit readout
Latitude
Unknown
Longitude
Unknown
Altitude
Unknown
Speed
Unknown
Apparent Right ascension
Unknown
Apparent Declination
Unknown
Sunlit
N/A
Visualization observer readout
Local Sidereal Time
10:15:12
Azimuth
Unknown
Elevation
Unknown
Doppler factor
Unknown
Orbital elements
Apogee altitude
213.491 km
Perigee altitude
189.416 km
Semi-major axis
6,579.59 km
Eccentricity
0.00183
Inclination
88.9316°
RAAN
294.4602°
Arg. of periapsis
197.7696°
True anomaly
162.36051°
Mean anomaly
162.2969°
Eccentric anomaly
162.32872°
Mean motion
4.06673 °/min
Orbital period
88.52 mins
BSTAR
0.0050884
Loading maneuver chart data...
Computing Atmospheric mass density...

Documentation

Showing up to 5 results
|